Temp
-16 -15 -15 -14 -14 -14 -13 -13 -13 -13 -13 -13 -13 -12 -12 -13 -13 -13 -14 -14 -14 -15 -15 -15 -16 -15 -14 -14 -14 -14 -14 -14 -13 -13 -14 -15 -15 -14 -14 -14 -14 -14 -14 -14 -14 -14 -14 -14 -13 -13 -12 -12 -12 -11
-17 -16 -15 -15 -14 -14 -14 -14 -14 -14 -14 -14 -13 -13 -14 -14 -14 -14 -14 -15 -15 -14 -15 -15 -15 -15 -15 -14 -14 -14 -15 -14 -14 -14 -14 -14 -14 -14 -14 -14 -14 -14 -14 -14 -15 -15 -14 -14 -14 -13 -13 -12 -12 -12
-17 -17 -16 -16 -15 -15 -14 -14 -14 -14 -14 -14 -14 -14 -14 -14 -14 -14 -14 -15 -15 -15 -15 -15 -15 -15 -15 -15 -15 -14 -14 -14 -15 -14 -14 -14 -14 -14 -14 -14 -14 -13 -14 -14 -14 -15 -14 -14 -15 -14 -13 -13 -12 -12
-17 -17 -16 -16 -15 -15 -15 -15 -15 -14 -14 -14 -14 -14 -14 -14 -14 -14 -14 -15 -15 -15 -15 -15 -16 -15 -16 -15 -15 -14 -14 -14 -14 -14 -14 -14 -14 -14 -14 -14 -14 -14 -14 -14 -14 -14 -14 -14 -14 -14 -14 -13 -13 -11
-17 -16 -16 -15 -15 -15 -15 -15 -15 -15 -15 -14 -14 -14 -14 -14 -14 -14 -15 -15 -14 -15 -15 -15 -15 -15 -15 -16 -15 -14 -14 -14 -14 -14 -14 -14 -14 -14 -14 -14 -13 -14 -14 -14 -14 -14 -14 -14 -14 -14 -14 -13 -13 -13
-17 -17 -16 -16 -15 -15 -15 -15 -15 -15 -15 -15 -15 -14 -14 -14 -14 -14 -14 -14 -14 -15 -16 -15 -15 -16 -16 -16 -15 -15 -14 -14 -14 -14 -14 -14 -13 -14 -14 -13 -13 -13 -14 -14 -14 -14 -14 -14 -14 -14 -14 -14 -14 -13
-17 -17 -17 -16 -16 -16 -16 -15 -15 -15 -15 -15 -14 -14 -14 -15 -14 -14 -14 -15 -15 -16 -16 -16 -16 -15 -16 -15 -15 -15 -15 -14 -14 -14 -13 -13 -13 -14 -14 -13 -14 -13 -13 -13 -13 -14 -14 -14 -14 -14 -14 -14 -14 -14
-18 -18 -17 -17 -16 -16 -16 -15 -15 -15 -15 -15 -15 -14 -15 -15 -15 -15 -15 -15 -15 -16 -17 -17 -16 -16 -16 -16 -15 -15 -15 -14 -14 -14 -14 -14 -13 -13 -13 -13 -13 -14 -14 -14 -13 -13 -13 -14 -14 -14 -14 -14 -14 -13
-18 -18 -17 -17 -16 -16 -16 -16 -15 -15 -15 -15 -15 -15 -15 -15 -15 -14 -15 -15 -15 -16 -16 -17 -16 -16 -16 -16 -16 -16 -15 -14 -14 -14 -14 -13 -13 -13 -14 -13 -13 -13 -14 -14 -14 -14 -13 -13 -13 -14 -14 -14 -13 -13
-18 -17 -17 -16 -16 -16 -16 -16 -15 -15 -15 -15 -15 -15 -15 -15 -15 -15 -15 -16 -15 -16 -16 -17 -17 -16 -16 -16 -16 -16 -15 -15 -14 -14 -14 -13 -13 -14 -14 -14 -14 -14 -14 -14 -14 -14 -14 -14 -14 -14 -14 -14 -14 -14
-17 -18 -17 -16 -17 -17 -17 -17 -16 -16 -15 -15 -15 -16 -16 -16 -15 -15 -15 -15 -16 -16 -17 -17 -17 -17 -17 -16 -16 -16 -15 -15 -14 -14 -14 -13 -13 -14 -14 -14 -14 -14 -14 -14 -14 -14 -14 -14 -14 -14 -14 -14 -14 -14
-18 -17 -17 -17 -17 -17 -16 -16 -16 -16 -15 -16 -16 -16 -16 -16 -16 -16 -17 -17 -17 -17 -17 -17 -18 -17 -17 -17 -17 -15 -15 -15 -15 -15 -14 -13 -14 -14 -14 -14 -14 -14 -14 -14 -14 -14 -14 -14 -14 -14 -13 -14 -14 -14
-18 -18 -18 -18 -18 -17 -16 -16 -16 -16 -16 -16 -17 -17 -17 -17 -16 -17 -17 -17 -17 -17 -17 -17 -17 -17 -17 -17 -16 -16 -16 -15 -16 -15 -15 -14 -14 -14 -14 -14 -15 -15 -14 -14 -14 -14 -14 -14 -14 -14 -14 -14 -14 -14
-18 -18 -18 -18 -18 -17 -17 -16 -16 -17 -17 -17 -17 -18 -17 -17 -17 -17 -17 -17 -17 -17 -17 -17 -17 -16 -16 -16 -16 -16 -16 -16 -15 -15 -15 -15 -15 -15 -15 -15 -16 -15 -15 -14 -14 -14 -14 -14 -14 -13 -13 -13 -14 -14
-19 -18 -18 -18 -17 -17 -17 -17 -17 -17 -18 -18 -18 -18 -18 -17 -17 -17 -17 -17 -17 -17 -17 -16 -16 -16 -16 -16 -16 -16 -16 -15 -14 -15 -15 -15 -15 -15 -15 -16 -15 -15 -15 -15 -14 -14 -14 -14 -14 -13 -14 -14 -14 -14
-18 -18 -18 -18 -17 -17 -17 -17 -17 -17 -18 -17 -18 -17 -17 -18 -17 -17 -17 -17 -17 -17 -17 -17 -16 -16 -16 -16 -15 -15 -15 -15 -15 -15 -14 -15 -15 -14 -15 -15 -15 -15 -15 -15 -14 -14 -14 -14 -14 -14 -14 -14 -14 -14
-19 -19 -18 -18 -17 -17 -17 -18 -17 -17 -17 -17 -17 -17 -17 -17 -17 -17 -17 -17 -15 -15 -16 -16 -15 -16 -15 -15 -15 -15 -16 -15 -14 -14 -14 -14 -14 -14 -14 -15 -15 -15 -15 -14 -14 -14 -14 -14 -14 -14 -14 -14 -14 -15
-18 -18 -18 -18 -18 -17 -18 -18 -18 -18 -18 -17 -17 -17 -17 -16 -16 -16 -16 -16 -16 -16 -16 -16 -15 -15 -15 -15 -16 -15 -14 -14 -14 -15 -15 -15 -15 -15 -15 -15 -15 -15 -15 -14 -14 -14 -14 -14 -14 -14 -14 -15 -15 -15
-18 -18 -18 -18 -18 -18 -18 -18 -18 -18 -18 -17 -17 -17 -16 -16 -16 -16 -16 -16 -16 -16 -16 -16 -15 -15 -15 -15 -15 -14 -14 -15 -15 -15 -15 -15 -15 -15 -15 -15 -15 -15 -14 -14 -14 -14 -14 -14 -14 -14 -15 -15 -16 -16
-18 -18 -18 -18 -18 -18 -19 -19 -19 -18 -18 -17 -17 -17 -16 -16 -16 -16 -16 -15 -15 -15 -16 -15 -15 -16 -15 -15 -15 -14 -14 -15 -15 -15 -15 -15 -15 -15 -15 -15 -15 -14 -14 -14 -14 -14 -14 -14 -15 -15 -15 -15 -16 -16
-18 -18 -18 -18 -18 -19 -19 -19 -18 -18 -18 -17 -17 -16 -16 -16 -16 -16 -16 -16 -16 -16 -15 -15 -15 -15 -15 -15 -15 -15 -15 -15 -15 -15 -15 -15 -15 -15 -15 -15 -15 -14 -14 -14 -14 -14 -14 -14 -14 -15 -15 -15 -16 -16
-19 -19 -19 -19 -19 -19 -18 -18 -18 -18 -18 -17 -17 -17 -16 -16 -16 -15 -15 -16 -16 -15 -15 -15 -15 -15 -15 -15 -16 -15 -14 -15 -15 -15 -15 -14 -15 -14 -14 -14 -14 -14 -14 -14 -14 -15 -15 -15 -15 -15 -16 -16 -16 -17
-19 -19 -19 -19 -19 -19 -18 -18 -18 -18 -17 -17 -17 -17 -17 -17 -16 -16 -16 -16 -16 -15 -15 -15 -15 -15 -15 -15 -15 -15 -15 -15 -15 -15 -15 -15 -15 -15 -14 -14 -14 -14 -14 -14 -14 -14 -15 -15 -15 -16 -16 -16 -17 -17
-19 -19 -19 -19 -19 -19 -18 -18 -18 -18 -17 -17 -17 -17 -16 -16 -16 -16 -16 -15 -15 -15 -15 -14 -15 -15 -15 -15 -15 -15 -15 -15 -15 -15 -15 -15 -15 -15 -15 -15 -15 -15 -15 -15 -15 -15 -15 -15 -15 -16 -16 -17 -18 -18
-19 -19 -19 -19 -19 -19 -18 -18 -18 -18 -17 -17 -17 -17 -17 -16 -16 -16 -15 -15 -15 -15 -15 -15 -15 -14 -15 -15 -15 -16 -16 -16 -15 -15 -15 -15 -15 -15 -15 -15 -15 -15 -15 -15 -15 -16 -16 -16 -16 -16 -16 -17 -18 -18
-19 -19 -19 -19 -19 -18 -18 -18 -18 -18 -17 -17 -17 -16 -16 -16 -16 -16 -16 -15 -15 -15 -15 -15 -15 -15 -15 -15 -15 -15 -16 -16 -16 -15 -15 -15 -15 -15 -15 -15 -15 -15 -16 -16 -16 -16 -16 -16 -16 -16 -16 -17 -17 -18
-19 -19 -19 -19 -18 -18 -18 -18 -18 -17 -17 -17 -17 -17 -16 -16 -16 -16 -15 -15 -16 -15 -15 -15 -15 -15 -15 -15 -15 -15 -15 -15 -15 -15 -15 -15 -15 -15 -15 -15 -15 -15 -15 -16 -16 -16 -16 -17 -17 -17 -17 -17 -18 -18
-19 -19 -19 -18 -18 -18 -18 -18 -17 -17 -17 -17 -17 -16 -16 -16 -16 -15 -15 -16 -15 -15 -15 -16 -16 -15 -15 -15 -15 -15 -15 -15 -15 -15 -15 -15 -15 -15 -16 -16 -16 -16 -16 -16 -16 -16 -17 -17 -17 -18 -18 -18 -18 -19
-18 -18 -18 -18 -18 -18 -17 -17 -17 -17 -17 -16 -16 -16 -16 -16 -15 -15 -15 -15 -15 -15 -15 -16 -16 -16 -15 -15 -15 -15 -15 -15 -15 -16 -16 -16 -16 -16 -16 -16 -16 -16 -16 -16 -17 -17 -17 -17 -17 -18 -18 -18 -19 -19
-18 -18 -18 -18 -17 -17 -17 -16 -17 -17 -16 -16 -16 -16 -16 -16 -15 -15 -15 -15 -15 -16 -15 -15 -15 -15 -15 -15 -15 -16 -16 -16 -15 -16 -16 -16 -16 -16 -16 -16 -17 -16 -16 -17 -17 -17 -17 -17 -18 -18 -18 -19 -19 -19
-18 -18 -18 -17 -17 -17 -17 -16 -16 -16 -16 -16 -15 -16 -16 -16 -15 -15 -15 -15 -15 -15 -16 -16 -16 -16 -15 -15 -15 -15 -15 -16 -16 -16 -16 -17 -17 -17 -17 -17 -17 -18 -18 -17 -17 -18 -18 -18 -19 -19 -19 -19 -20 -20
-17 -17 -17 -17 -17 -17 -16 -16 -16 -15 -16 -16 -16 -16 -16 -16 -16 -16 -16 -16 -16 -15 -15 -15 -15 -15 -15 -16 -16 -16 -16 -16 -16 -16 -16 -17 -17 -17 -18 -17 -17 -18 -19 -19 -19 -19 -18 -19 -19 -20 -20 -20 -20 -21
-17 -17 -17 -17 -17 -17 -17 -16 -16 -16 -16 -16 -16 -16 -16 -16 -16 -16 -16 -16 -16 -16 -16 -16 -16 -16 -17 -17 -17 -17 -17 -17 -17 -17 -17 -17 -17 -18 -18 -18 -18 -18 -19 -19 -19 -19 -19 -20 -20 -20 -20 -21 -21 -21
Height
5719 5721 5723 5724 5725 5725 5725 5726 5726 5726 5725 5726 5727 5727 5729 5730 5732 5734 5739 5743 5747 5751 5750 5754 5756 5759 5762 5767 5768 5769 5771 5770 5771 5772 5771 5771 5770 5768 5768 5770 5772 5773 5773 5773 5775 5779 5782 5784 5790 5796 5799 5804 5806 5811
5709 5711 5712 5714 5715 5715 5716 5716 5716 5716 5716 5717 5718 5718 5719 5721 5722 5724 5729 5734 5738 5743 5743 5747 5751 5754 5759 5763 5764 5765 5767 5768 5769 5769 5770 5770 5769 5769 5769 5770 5771 5773 5772 5772 5777 5778 5779 5783 5788 5788 5793 5797 5803 5808
5699 5701 5702 5704 5705 5706 5707 5707 5707 5707 5708 5708 5709 5711 5712 5714 5715 5715 5719 5725 5730 5734 5735 5740 5745 5748 5751 5757 5758 5760 5764 5766 5768 5768 5768 5768 5768 5769 5769 5771 5773 5774 5772 5773 5777 5777 5780 5782 5787 5788 5788 5791 5796 5802
5691 5692 5693 5695 5696 5697 5699 5699 5698 5699 5699 5701 5702 5704 5705 5706 5707 5708 5711 5716 5720 5725 5727 5733 5735 5738 5746 5753 5756 5758 5762 5764 5765 5767 5768 5767 5767 5768 5769 5770 5771 5773 5773 5773 5775 5776 5781 5784 5785 5787 5788 5789 5788 5791
5682 5684 5685 5686 5687 5689 5690 5691 5691 5692 5692 5693 5695 5696 5698 5699 5699 5700 5703 5707 5712 5717 5721 5725 5728 5736 5741 5745 5750 5753 5758 5761 5762 5764 5765 5766 5768 5768 5769 5769 5769 5771 5772 5774 5775 5777 5779 5780 5781 5783 5784 5787 5787 5787
5672 5673 5676 5677 5679 5680 5682 5683 5684 5684 5685 5685 5687 5689 5690 5693 5692 5694 5697 5702 5705 5708 5714 5718 5722 5728 5732 5738 5742 5748 5751 5756 5758 5760 5761 5763 5765 5768 5767 5767 5767 5768 5770 5771 5774 5774 5774 5776 5777 5779 5781 5783 5783 5782
5661 5663 5665 5668 5670 5672 5674 5675 5676 5677 5679 5680 5681 5682 5684 5686 5686 5688 5692 5695 5697 5701 5707 5711 5716 5720 5726 5731 5736 5741 5745 5750 5753 5755 5757 5760 5763 5764 5764 5764 5766 5766 5767 5767 5768 5771 5773 5774 5776 5777 5778 5779 5781 5781
5651 5653 5654 5657 5661 5664 5666 5668 5669 5671 5673 5674 5675 5676 5677 5679 5680 5681 5684 5687 5690 5694 5699 5703 5709 5715 5719 5725 5731 5735 5739 5743 5747 5751 5754 5755 5759 5761 5761 5762 5763 5764 5764 5765 5766 5767 5770 5771 5772 5773 5774 5775 5776 5777
5644 5646 5648 5650 5653 5656 5659 5661 5663 5665 5666 5667 5669 5669 5670 5671 5673 5675 5677 5679 5682 5688 5691 5696 5704 5709 5712 5718 5724 5728 5731 5736 5740 5745 5748 5752 5755 5758 5758 5759 5760 5761 5763 5763 5763 5763 5765 5767 5767 5769 5769 5768 5769 5771
5636 5639 5642 5645 5648 5650 5653 5655 5657 5658 5660 5661 5663 5663 5663 5664 5666 5669 5670 5672 5675 5679 5685 5691 5697 5703 5708 5712 5718 5722 5726 5729 5734 5740 5740 5746 5751 5753 5754 5754 5756 5757 5759 5760 5761 5761 5761 5762 5763 5763 5763 5763 5764 5765
5628 5632 5636 5640 5642 5644 5647 5649 5651 5653 5654 5655 5655 5655 5657 5658 5659 5662 5664 5666 5670 5675 5681 5687 5691 5697 5703 5707 5710 5715 5720 5722 5726 5731 5734 5739 5745 5748 5749 5749 5750 5753 5754 5755 5757 5758 5759 5759 5758 5758 5758 5760 5761 5761
5623 5627 5631 5634 5636 5640 5642 5644 5645 5647 5648 5649 5650 5649 5650 5652 5654 5657 5659 5662 5665 5669 5676 5681 5684 5690 5695 5699 5704 5710 5713 5715 5718 5722 5725 5731 5739 5739 5740 5743 5744 5746 5749 5751 5752 5755 5755 5754 5754 5755 5756 5756 5757 5756
5619 5622 5626 5628 5632 5634 5636 5638 5640 5641 5642 5644 5644 5645 5648 5650 5652 5653 5655 5658 5661 5664 5670 5675 5680 5682 5688 5694 5698 5702 5704 5708 5712 5716 5718 5728 5730 5732 5733 5735 5738 5740 5742 5745 5748 5749 5749 5749 5751 5752 5751 5751 5750 5747
5614 5617 5620 5623 5626 5629 5631 5633 5634 5636 5638 5640 5642 5643 5646 5648 5650 5651 5653 5654 5657 5661 5665 5669 5674 5678 5684 5688 5692 5696 5701 5703 5705 5710 5718 5721 5722 5725 5727 5728 5730 5734 5736 5739 5742 5743 5744 5745 5746 5747 5747 5745 5743 5740
5608 5612 5615 5619 5622 5624 5626 5628 5630 5632 5634 5636 5638 5641 5644 5646 5648 5650 5652 5654 5658 5661 5664 5667 5671 5674 5678 5682 5688 5693 5694 5696 5701 5709 5714 5715 5716 5717 5720 5722 5724 5727 5731 5733 5735 5737 5739 5741 5742 5742 5741 5739 5737 5734
5602 5606 5610 5615 5617 5620 5622 5624 5626 5628 5631 5634 5637 5640 5642 5644 5646 5648 5651 5654 5657 5660 5662 5665 5666 5670 5673 5678 5683 5688 5693 5698 5701 5702 5705 5706 5707 5710 5713 5716 5719 5722 5725 5727 5729 5731 5734 5736 5736 5735 5734 5733 5730 5728
5597 5602 5607 5610 5613 5616 5618 5620 5623 5625 5628 5633 5635 5638 5640 5643 5645 5648 5651 5653 5654 5655 5661 5664 5666 5669 5674 5678 5683 5686 5691 5692 5693 5697 5698 5700 5703 5705 5708 5712 5715 5718 5720 5722 5725 5726 5728 5728 5729 5728 5727 5725 5722 5720
5595 5599 5603 5607 5610 5612 5615 5617 5620 5624 5627 5631 5634 5636 5638 5641 5643 5646 5648 5651 5654 5657 5659 5661 5665 5668 5671 5674 5677 5678 5680 5682 5688 5691 5693 5696 5698 5701 5704 5707 5711 5713 5716 5719 5721 5722 5722 5722 5722 5721 5720 5718 5716 5713
5592 5596 5600 5603 5606 5609 5612 5616 5620 5622 5626 5629 5632 5634 5637 5640 5642 5645 5647 5650 5653 5656 5659 5661 5664 5669 5670 5670 5671 5673 5677 5682 5684 5685 5687 5689 5693 5697 5701 5704 5706 5708 5711 5713 5714 5715 5715 5715 5716 5715 5712 5710 5708 5706
5589 5594 5597 5600 5604 5607 5611 5615 5619 5621 5624 5628 5630 5633 5636 5640 5642 5644 5647 5649 5652 5654 5656 5657 5661 5663 5664 5666 5668 5671 5676 5679 5681 5681 5683 5686 5690 5694 5695 5698 5701 5703 5705 5706 5708 5708 5708 5708 5708 5707 5704 5701 5699 5697
5588 5592 5596 5599 5603 5607 5611 5614 5618 5621 5623 5626 5630 5633 5635 5638 5641 5644 5646 5649 5651 5652 5654 5655 5658 5660 5661 5662 5665 5668 5672 5674 5678 5678 5680 5682 5684 5689 5692 5693 5695 5697 5699 5700 5701 5701 5700 5699 5699 5698 5695 5693 5691 5688
5587 5591 5595 5598 5602 5606 5610 5614 5618 5620 5623 5626 5629 5631 5634 5636 5639 5641 5644 5646 5647 5649 5650 5652 5654 5656 5657 5661 5661 5660 5663 5668 5671 5672 5677 5680 5681 5683 5686 5689 5690 5692 5692 5692 5692 5692 5692 5690 5690 5689 5686 5683 5681 5679
5587 5591 5595 5599 5603 5607 5611 5613 5617 5619 5622 5625 5628 5630 5632 5634 5636 5639 5643 5644 5645 5646 5647 5649 5651 5653 5655 5656 5659 5660 5661 5664 5668 5670 5672 5674 5676 5678 5680 5682 5683 5684 5684 5684 5683 5683 5683 5681 5681 5679 5677 5674 5671 5668
5587 5591 5595 5599 5603 5607 5610 5613 5616 5618 5620 5623 5625 5627 5630 5632 5635 5637 5639 5641 5643 5644 5646 5647 5649 5651 5652 5654 5655 5656 5657 5658 5663 5667 5668 5667 5669 5671 5673 5675 5675 5676 5676 5676 5675 5675 5674 5673 5672 5670 5667 5664 5660 5657
5589 5593 5598 5601 5604 5608 5610 5612 5614 5616 5619 5621 5624 5626 5629 5631 5633 5636 5638 5641 5642 5642 5643 5644 5646 5648 5649 5651 5651 5653 5654 5654 5656 5658 5661 5662 5664 5665 5666 5666 5667 5668 5667 5667 5667 5667 5666 5664 5662 5660 5656 5654 5649 5646
5590 5595 5599 5602 5605 5608 5610 5612 5615 5617 5619 5621 5624 5626 5629 5631 5634 5635 5636 5637 5638 5640 5641 5641 5642 5643 5644 5645 5645 5646 5647 5648 5650 5652 5655 5658 5658 5657 5658 5659 5660 5661 5661 5661 5660 5659 5656 5653 5650 5648 5645 5642 5639 5638
5592 5596 5599 5602 5605 5607 5610 5612 5615 5617 5620 5622 5624 5627 5629 5631 5632 5633 5634 5636 5637 5637 5639 5640 5640 5641 5642 5643 5643 5643 5643 5645 5647 5647 5648 5650 5650 5650 5650 5651 5651 5651 5652 5652 5650 5648 5645 5642 5640 5637 5635 5633 5631 5629
5594 5597 5601 5604 5606 5608 5611 5614 5616 5618 5620 5623 5625 5627 5629 5630 5632 5632 5633 5634 5635 5636 5637 5639 5639 5639 5638 5639 5640 5641 5641 5642 5643 5643 5644 5643 5642 5641 5643 5644 5642 5642 5642 5640 5639 5636 5635 5633 5630 5628 5627 5625 5623 5619
5597 5600 5603 5605 5608 5611 5614 5616 5617 5619 5621 5623 5625 5627 5628 5630 5630 5630 5631 5632 5634 5633 5633 5637 5637 5637 5637 5636 5637 5637 5637 5638 5638 5639 5639 5638 5637 5636 5634 5634 5635 5634 5633 5630 5630 5628 5624 5623 5622 5621 5619 5617 5614 5611
5599 5601 5605 5608 5611 5614 5616 5615 5616 5619 5622 5624 5625 5626 5628 5629 5630 5632 5633 5632 5633 5635 5635 5635 5635 5634 5634 5634 5634 5634 5634 5633 5632 5631 5630 5630 5629 5629 5627 5626 5625 5624 5621 5619 5620 5619 5617 5616 5615 5614 5612 5610 5609 5606
5602 5605 5607 5610 5612 5615 5616 5617 5620 5623 5624 5625 5625 5626 5627 5629 5632 5633 5633 5633 5633 5634 5632 5631 5631 5630 5629 5628 5628 5628 5628 5627 5626 5624 5623 5622 5621 5620 5619 5617 5617 5615 5613 5611 5610 5610 5609 5608 5606 5606 5605 5604 5602 5599
5604 5607 5610 5613 5616 5618 5621 5620 5621 5620 5624 5626 5629 5630 5631 5632 5632 5632 5631 5630 5629 5629 5629 5629 5628 5626 5624 5623 5621 5620 5620 5620 5618 5617 5615 5615 5613 5612 5610 5609 5607 5605 5604 5604 5601 5601 5600 5599 5600 5600 5599 5597 5595 5593
5607 5610 5613 5616 5619 5621 5623 5625 5626 5628 5628 5628 5629 5630 5631 5632 5631 5631 5630 5628 5628 5627 5626 5624 5623 5620 5618 5617 5616 5614 5613 5611 5610 5609 5609 5607 5606 5604 5603 5601 5600 5599 5597 5596 5596 5595 5594 5594 5594 5593 5591 5590 5589 5589
Wind_Speed
31 27 27 27 29 28 30 30 29 29 27 28 28 29 29 29 30 30 28 28 26 27 31 34 37 33 27 17 14 9 9 14 11 7 3 3 6 7 11 9 7 11 12 12 21 24 29 40 44 40 43 35 45 39
32 34 28 29 28 27 28 28 28 28 27 26 25 24 21 23 24 28 26 26 28 25 33 36 37 35 31 25 15 7 6 7 6 9 7 5 7 7 6 4 11 6 9 2 6 9 17 24 23 34 29 28 35 37
27 27 26 27 29 29 30 30 27 25 24 22 22 21 19 19 21 23 25 26 27 21 33 35 35 32 33 29 20 18 10 4 4 3 7 6 5 5 6 6 5 6 4 3 4 5 6 11 8 8 10 22 35 39
24 25 26 28 29 27 27 27 26 23 21 19 18 21 19 19 21 21 22 27 28 25 33 33 40 38 31 27 25 21 12 7 8 6 5 6 7 7 7 4 2 1 2 3 5 7 12 15 14 15 13 10 11 22
28 28 27 25 26 27 27 26 24 22 20 18 20 18 18 18 18 21 20 27 24 26 34 35 37 31 27 27 30 25 18 14 12 10 9 9 6 3 4 7 6 3 3 3 4 5 9 9 9 14 18 18 19 19
36 35 32 27 26 25 26 25 23 21 19 16 17 17 17 16 15 19 21 17 21 26 37 33 34 34 34 32 33 28 25 20 19 15 14 12 9 7 8 8 9 8 6 6 3 2 3 2 4 9 11 13 15 17
30 32 36 34 31 29 25 23 21 20 18 17 17 17 17 15 17 17 18 20 23 30 33 34 32 31 33 36 33 29 28 26 23 21 18 16 14 14 14 12 10 11 9 8 9 5 3 5 7 9 11 10 10 12
21 26 27 27 31 26 22 20 18 17 19 18 18 19 18 17 17 16 19 21 26 31 33 34 33 28 29 38 33 31 31 29 27 25 22 21 16 14 14 13 10 8 10 12 10 10 7 6 7 9 12 14 16 16
23 21 22 21 19 19 17 15 16 17 18 19 18 18 19 19 22 20 18 20 26 32 33 36 32 28 29 28 35 33 32 32 31 30 27 24 18 13 14 15 14 13 14 15 15 14 13 11 10 9 11 15 19 20
24 21 18 18 17 14 16 15 16 18 18 18 17 18 18 18 21 19 19 22 26 30 33 35 32 31 28 26 23 28 32 32 34 31 32 28 22 19 18 19 19 18 17 17 14 16 17 17 16 17 15 15 17 18
25 25 20 16 14 15 17 16 18 17 16 16 17 15 15 14 15 17 19 21 25 25 32 33 32 31 26 24 24 24 26 28 35 36 35 31 25 20 22 23 22 19 19 20 19 17 17 17 20 17 13 14 17 21
18 19 16 15 19 17 16 16 16 15 16 16 15 14 14 12 13 12 10 17 19 24 30 33 31 31 31 30 28 27 25 25 26 30 38 34 24 24 25 22 23 21 19 19 18 15 15 14 14 11 12 14 17 21
20 19 23 19 16 14 16 17 14 15 14 14 14 11 11 9 6 5 6 7 10 22 27 30 30 30 28 28 26 27 25 25 26 26 26 20 24 24 23 22 19 21 19 17 14 15 17 14 10 10 12 17 22 24
24 25 26 21 18 17 15 14 14 14 15 16 14 11 9 5 2 5 9 14 15 18 24 29 31 29 26 30 28 25 26 18 22 24 11 19 20 18 19 22 22 21 19 17 16 18 17 13 10 9 14 19 22 24
28 23 20 18 16 15 14 15 15 16 19 15 12 12 14 9 6 9 6 10 13 16 18 19 23 26 26 26 30 22 25 23 18 14 17 20 19 23 20 19 19 20 18 18 18 16 15 14 12 12 16 19 22 25
22 23 21 17 15 14 15 16 15 16 21 14 12 10 12 11 10 14 17 15 13 12 14 14 14 16 14 20 24 19 16 15 16 22 22 24 25 21 23 21 20 20 19 19 18 17 16 14 13 15 18 19 22 24
21 17 16 15 14 15 17 16 15 18 21 15 17 13 10 11 15 19 21 20 12 11 15 15 16 18 18 19 19 17 13 17 21 16 16 17 17 20 19 18 20 21 20 20 19 17 16 16 17 17 20 24 25 24
17 16 15 14 16 17 16 13 16 16 15 15 16 15 13 19 15 15 14 17 17 19 22 18 11 14 15 13 16 21 26 27 15 13 14 16 17 17 17 18 19 19 19 20 19 17 17 19 19 20 24 25 27 25
16 16 15 16 18 17 14 13 14 15 14 18 10 15 19 16 19 14 18 15 15 14 16 16 16 13 11 16 18 17 21 18 15 17 21 19 19 18 17 17 18 20 20 20 19 19 20 21 21 23 26 26 25 24
16 16 16 18 17 14 15 15 12 12 13 16 11 15 15 17 16 13 11 11 11 12 16 18 19 22 14 18 19 12 14 14 16 19 22 23 19 20 18 18 19 20 20 19 21 22 22 23 23 23 25 27 28 27
16 16 18 17 14 16 16 15 13 14 14 14 13 15 16 14 14 13 11 11 11 10 10 9 18 18 19 19 20 26 24 17 12 16 18 17 18 17 19 17 16 18 20 22 22 21 23 25 24 23 27 29 29 28
17 18 17 17 17 16 14 14 13 13 13 12 11 11 13 12 13 13 12 9 9 12 13 11 13 9 13 17 11 17 17 21 22 19 24 18 15 15 18 19 20 19 19 22 23 21 22 25 26 27 30 30 30 29
17 18 19 18 15 14 13 12 12 13 13 11 11 10 12 14 14 12 9 11 11 12 11 12 14 13 18 16 19 13 7 5 10 15 14 13 15 17 19 20 19 20 22 25 24 24 25 28 30 32 32 32 32 31
19 23 19 15 14 13 11 11 10 11 11 11 12 12 12 13 12 12 12 11 8 7 9 12 11 12 14 16 20 23 24 26 21 19 16 16 16 22 22 24 22 22 22 23 23 25 28 31 33 35 35 34 33 32
20 23 19 14 12 11 11 9 7 9 10 10 9 10 9 9 9 9 8 7 10 10 11 13 14 15 17 20 22 24 27 28 28 29 28 23 24 24 22 22 21 22 22 23 24 25 27 30 33 34 35 36 36 36
21 20 15 14 13 12 11 10 9 9 11 10 8 9 8 8 8 7 9 10 11 10 13 17 14 13 9 12 12 14 18 22 23 25 23 22 22 22 23 21 20 20 22 22 25 27 26 31 33 32 31 30 26 25
20 18 16 15 13 13 13 14 10 12 12 11 10 10 8 7 6 8 8 8 11 11 4 5 5 8 13 11 8 11 7 14 12 16 19 17 18 26 23 19 19 22 25 24 27 30 30 32 33 27 24 25 26 28
18 18 17 15 15 17 16 13 11 10 10 8 7 6 5 6 5 7 7 7 5 7 7 5 7 7 7 8 8 10 10 11 14 14 14 19 23 25 17 20 21 27 29 28 29 27 35 35 29 26 28 32 32 29
17 17 15 15 13 15 12 8 7 7 10 10 8 6 6 4 4 4 4 10 8 6 12 5 11 7 5 4 6 8 8 9 12 14 16 19 24 26 25 24 26 28 29 28 27 35 40 37 32 28 29 29 26 23
18 18 17 18 17 14 7 9 8 6 5 6 6 7 9 8 9 6 3 2 3 2 2 6 6 5 7 9 12 13 15 16 18 19 20 23 26 26 28 28 25 29 30 27 25 28 34 38 32 25 21 21 20 18
17 18 18 17 16 15 15 17 19 12 5 9 14 11 9 9 8 1 2 4 5 6 5 9 11 11 13 15 16 17 19 19 19 19 20 22 23 21 24 24 25 28 27 25 26 26 28 27 22 18 17 19 18 14
19 17 18 18 19 17 19 23 13 18 16 14 13 12 9 5 4 4 3 5 7 8 8 10 12 12 12 13 15 17 19 19 20 21 20 19 22 25 27 26 29 26 19 21 18 21 28 22 18 17 18 19 17 14
16 18 20 20 22 22 19 14 11 8 3 3 6 7 4 2 3 5 6 7 7 9 11 13 14 14 14 15 15 16 16 16 17 17 18 19 18 20 23 22 19 19 19 18 19 16 18 20 20 19 18 17 16 15
Wind_Direction
260 273 270 276 279 277 276 273 272 269 269 269 271 269 262 256 252 248 240 236 243 237 234 221 224 240 246 257 259 261 265 257 247 270 297 190 237 194 160 176 191 182 231 231 219 222 228 224 219 224 221 227 221 221
264 264 271 270 280 275 277 275 271 271 270 270 267 265 263 257 251 244 239 233 233 238 226 223 218 235 237 240 255 253 252 269 284 249 235 167 167 183 198 189 190 228 260 66 159 192 207 226 236 242 236 214 217 216
255 256 266 270 273 274 273 271 271 275 267 266 263 254 255 256 251 243 234 227 232 238 223 222 225 233 237 238 244 242 227 202 264 238 235 185 187 173 174 212 228 237 292 291 233 194 148 223 270 191 230 249 233 228
264 262 270 268 270 271 271 272 268 271 264 258 259 253 255 258 249 239 231 221 227 234 217 221 223 232 229 232 242 238 225 198 235 230 208 198 181 194 212 211 172 261 73 34 44 176 200 215 219 215 209 235 263 239
259 263 262 270 267 268 267 269 265 262 259 259 260 253 250 251 235 231 229 224 227 230 217 223 229 227 219 223 232 233 229 219 228 233 247 246 221 202 228 261 288 313 330 58 104 170 207 212 211 206 207 217 230 248
260 256 258 265 270 273 268 262 261 258 261 264 255 251 246 242 232 234 229 222 222 229 214 219 227 225 218 218 220 224 230 224 228 228 236 247 255 272 273 284 301 299 298 304 297 217 237 216 231 240 238 226 231 246
262 258 254 259 261 270 263 259 254 254 255 255 253 249 236 234 230 227 227 223 228 217 210 221 223 219 211 214 217 220 226 228 228 228 234 244 252 267 273 272 268 288 291 291 299 306 278 260 250 249 252 250 237 239
259 258 259 250 254 257 255 255 254 253 253 250 250 250 245 234 237 236 229 230 222 215 215 220 221 217 212 212 218 223 227 227 229 231 235 243 242 255 264 272 276 258 269 277 280 289 301 294 281 275 270 265 258 255
258 257 254 249 250 247 250 257 255 256 255 251 254 248 242 241 236 235 238 231 226 220 220 219 212 214 218 212 215 220 225 227 229 232 234 237 243 249 259 266 267 258 250 261 273 278 286 296 306 306 282 275 276 273
246 242 245 247 247 241 260 261 262 257 254 253 248 241 237 238 237 237 238 239 232 226 217 209 207 216 219 223 214 221 227 232 231 232 236 236 239 243 251 260 265 266 257 259 267 267 278 287 297 306 298 286 290 291
235 226 234 230 243 264 253 256 258 255 256 249 243 243 233 228 224 225 232 237 231 229 220 211 209 211 218 222 224 219 219 230 231 232 236 238 240 241 239 250 259 255 251 256 259 264 280 288 291 284 275 276 281 288
218 222 224 236 252 253 251 252 249 250 242 240 244 230 212 216 225 232 236 236 231 218 217 209 206 212 211 221 228 225 230 232 238 234 235 233 237 245 250 248 254 259 253 248 251 255 269 272 271 276 285 293 296 294
220 223 230 254 244 249 245 246 243 233 231 229 207 197 196 203 203 218 210 215 226 222 217 213 207 212 215 216 222 232 241 236 237 240 235 225 233 240 248 253 252 251 249 250 241 254 263 263 270 279 304 316 313 311
232 234 247 242 233 250 245 234 229 227 207 190 196 191 206 193 250 226 194 211 216 218 215 213 213 220 214 221 225 230 226 236 226 229 224 231 225 230 246 257 254 237 243 239 243 251 249 252 258 310 319 313 313 316
238 246 227 220 245 240 231 226 221 210 196 200 225 234 217 230 219 176 189 198 180 193 204 208 216 224 224 222 211 209 222 237 248 241 234 234 222 241 243 239 228 223 231 239 242 239 238 241 252 273 305 311 311 312
232 230 212 228 237 225 221 217 216 200 183 185 171 187 202 205 206 182 170 172 183 187 214 202 195 203 196 197 206 205 212 229 239 235 233 242 242 231 231 226 221 226 232 236 233 233 235 245 263 271 296 308 313 314
209 201 217 225 223 214 212 214 211 198 193 190 208 191 176 190 182 176 176 178 167 200 210 213 205 186 192 194 204 214 189 207 222 224 228 224 226 229 232 218 213 223 228 231 230 235 247 261 263 275 298 305 309 316
204 210 217 214 210 209 211 206 196 179 184 191 193 192 194 185 198 199 191 184 203 213 214 219 227 199 191 194 203 201 204 210 199 207 217 221 220 219 212 208 215 222 229 232 234 241 250 261 269 286 293 297 301 309
202 206 204 204 208 204 201 196 192 203 210 201 205 198 184 178 174 173 182 184 194 199 202 218 220 208 217 213 215 217 209 209 229 213 206 208 212 218 214 217 221 228 231 237 246 250 259 266 275 287 294 298 300 302
194 195 198 196 197 198 189 175 175 186 187 185 177 186 184 189 200 212 215 206 215 198 232 257 235 208 216 206 209 207 216 224 255 223 216 214 228 219 214 216 226 233 240 247 251 256 265 273 280 285 291 298 299 299
188 187 184 188 185 180 178 182 181 174 170 173 175 180 192 201 208 209 217 213 224 254 257 206 203 218 221 220 236 247 246 243 241 194 198 200 209 233 220 226 234 241 248 252 256 263 271 278 284 287 292 294 295 298
179 179 180 178 177 177 184 179 172 175 177 177 183 190 198 211 217 213 197 193 201 216 228 240 219 234 212 219 253 273 255 233 238 236 222 216 221 215 224 228 235 242 251 258 263 269 277 282 282 286 291 295 295 293
176 176 169 166 170 177 177 178 178 179 185 187 194 198 194 196 205 206 181 194 207 217 230 235 224 222 220 227 235 249 230 241 229 231 234 236 234 236 241 242 249 254 260 263 268 275 281 284 284 288 293 293 292 292
170 164 162 166 174 168 171 182 189 193 191 194 199 196 194 196 198 192 204 214 221 229 235 232 227 232 235 236 239 241 238 247 246 225 237 230 245 248 245 247 256 268 275 275 277 279 282 283 287 293 294 292 289 288
172 170 167 167 171 177 182 180 184 182 179 184 188 192 187 193 213 219 230 235 236 238 245 247 248 249 246 242 237 241 248 252 251 246 245 244 251 255 262 267 274 278 279 281 281 281 286 292 295 298 299 296 286 290
167 168 169 173 173 172 168 166 168 171 167 165 169 177 177 193 209 224 235 233 234 237 245 250 254 262 252 270 254 235 227 227 233 235 234 236 245 253 259 263 273 280 280 281 285 287 284 299 309 309 311 307 305 299
160 165 166 162 164 159 157 154 157 164 164 172 179 188 198 195 226 235 237 239 234 233 264 239 257 259 251 279 273 253 253 212 234 231 240 249 257 262 247 264 272 275 285 279 289 292 300 309 312 308 309 311 306 303
158 158 160 157 151 154 162 154 158 176 182 187 186 197 192 196 219 240 250 253 163 212 258 223 228 238 260 266 263 257 255 254 244 251 260 264 277 243 273 272 277 282 285 290 293 295 294 296 295 297 302 307 305 302
154 154 151 144 143 151 149 155 177 185 189 189 192 192 206 221 240 222 179 205 248 247 177 206 219 208 241 278 283 278 269 262 260 258 261 268 272 276 285 286 288 286 284 289 294 288 280 287 282 290 304 305 304 302
151 149 140 133 131 120 95 133 114 145 175 183 191 193 194 192 157 98 69 332 336 21 211 268 270 263 263 266 276 278 280 280 279 278 276 276 278 281 283 285 287 282 271 282 288 283 277 274 273 292 296 299 295 293
142 140 138 139 133 131 113 113 121 118 75 116 105 104 133 161 169 170 210 207 192 174 230 281 292 291 290 288 287 284 284 285 281 278 275 274 273 274 271 273 280 294 293 282 271 269 272 262 284 286 290 288 287 293
145 146 150 145 148 152 143 135 84 64 71 82 73 82 90 87 92 156 233 291 306 309 301 293 292 294 295 296 294 292 289 287 288 289 286 285 276 268 282 291 301 302 276 274 277 264 267 274 278 283 287 282 281 280
145 147 150 143 145 157 158 147 106 80 55 65 23 5 7 345 326 336 330 329 324 316 306 302 301 302 303 302 300 300 300 300 298 298 295 291 292 293 292 295 292 292 289 277 263 264 267 272 276 283 291 282 277 277